Location: Fontevrault
(47.1823°N, 0.0493°E)
Time: 16:20:05
(UTC+00:00)

Meteor 1-4 Rocket - Pass Details

Date: 16 June 2021
Orbit: 447 x 499 km, 81.2° (Epoch: 30 July)

Event Time Altitude Azimuth Distance (km) Brightness Sun altitude
Rises 23:38:38 0° 353° (N) 2,496 7.9 -19.3°
Reaches altitude 10° 23:40:48 10° 359° (N) 1,608 6.4 -19.3°
Maximum altitude 23:44:12 48° 75° (ENE) 599 3.0 -19.3°
Enters shadow 23:44:44 44° 107° (ESE) 641 2.9 -19.3°
